Welcome to the New NWS' Forecast!
Most changes are behind the scenes, but click here for differences you might notice.

Regional Weather Roundup (RWR)

Issued by Gray - Portland, ME (GYX)

                            
226 
ASUS41 KGYX 181010
RWRGYX
WEATHER ROUNDUP FOR MAINE AND NEW HAMPSHIRE
NATIONAL WEATHER SERVICE GRAY ME
600 AM EDT TUE SEP 18 2018

MEZ002-005-006-010-012-015-018-020-021-024-026-027-029-181100-
MAINE
  
CITY           SKY/WX    TMP DP  RH WIND       PRES   REMARKS
PORTLAND       MOCLDY    70  69  97 SW8       29.84F                  
SANFORD        LGT RAIN  69  68  96 SW7       29.86F                  
BAR HARBOR     FAIR      65  63  93 SW7       29.82F                  
WISCASSET      MOCLDY    68  67  96 CALM      29.85S                  
ROCKLAND       CLOUDY    68  67  96 W12       29.84S                  
FRYEBURG       LGT RAIN  69  66  90 SW9       29.83F                  
LEWISTONAUBURN FAIR      67  65  93 S3        29.83F                  
AUGUSTA        FAIR      65  63  93 S5        29.84S                  
WATERVILLE     FAIR      63  62  97 S3        29.81S                  
BANGOR         MOCLDY    65  63  93 S6        29.81F                  
GREENVILLE       N/A     65  59  81 VRB3      29.80R                  
MILLINOCKET    FAIR      64  62  93 CALM      29.79R                  
HOULTON        FAIR      62  62 100 S7        29.74R                  
PRESQUE ISLE   MOCLDY    62  59  90 W3        29.73S                  
FRENCHVILLE    HVY RAIN  58  53  84 SW3       29.72R                  
CARIBOU        FAIR      65  60  84 W5        29.72S                  
$$

NHZ002-005-008-009-011-012-014-181100-
NEW HAMPSHIRE
  
CITY           SKY/WX    TMP DP  RH WIND       PRES   REMARKS
ROCHESTER      LGT RAIN  69  69 100 CALM      29.86F                  
NASHUA         HVY RAIN  68  68 100 E5        29.84F FOG              
MANCHESTER     RAIN      69  68  96 SE8       29.83F FOG              
CONCORD        LGT RAIN  69  68  96 SE7       29.85F                  
LACONIA        FAIR      69  67  93 SW7       29.85F                  
PLYMOUTH       HVY RAIN  63  62  96 CALM      29.84F                  
BERLIN         FAIR      59  58  96 CALM      29.86F                  
WHITEFIELD     MOCLDY    59  57  93 CALM      29.86F                  
JAFFREY        RAIN      67  67 100 CALM      29.85F FOG              
KEENE          RAIN     N/A N/A N/A CALM      29.83F                  
LEBANON        LGT RAIN  69  66  90 CALM      29.83F FOG              
MT WASHINGTON  FOG       52  52 100 W39G47      N/A  VSB 0            
$$

VTZ005-007-008-181100-
VERMONT
  
CITY           SKY/WX    TMP DP  RH WIND       PRES   REMARKS
ST JOHNSBURY     N/A     60  59  96 MISG      29.82F                  
MONTPELIER     FAIR      65  64  97 CALM      29.87F                  
BURLINGTON     FAIR      71  66  84 S7        29.80F                  
$$

MAZ007-012-024-CTZ003-RIZ002-NYZ038-NYZ072-181100-
SOUTHERN NEW ENGLAND AND NY
  
CITY           SKY/WX    TMP DP  RH WIND       PRES   REMARKS
BOSTON         LGT RAIN  71  70  96 E6        29.85F FOG              
WORCESTER      HVY RAIN  69  69 100 S13       29.83F FOG              
NANTUCKET      FAIR      69  69 100 S6        29.90F                  
PROVIDENCE     MOCLDY    72  71  97 S7        29.85F                  
HARTFORD       CLOUDY    73  72  96 S10       29.78F                  
ALBANY         HVY RAIN  69  67  93 NE7       29.80R FOG              
NEW YORK CITY  CLOUDY    77  72  84 S10       29.78F                  
$$

ANZ081-ANZ082-ANZ150-NHZ014-MEZ023>029-181100-
COASTAL MARINE OBSERVATIONS
  
STATION/POSITION TIME  TEMP    WIND        PRES    WAVE
                       AIR SEA DIR/SP/G            HT/PER
                 (UTC) (F)     (DEG/KT/KT) (MB)    (FT/S)
MOUNT DESERT ROC 1000   62     220/ 17/ 18 1010.6R
MATINICUS ROCK   0900   63     220/ 20/ 21 1010.0F
ISLE OF SHOALS   0900   68     220/ 17/ 18 1011.3F
JEFFREYS LEDGE   0936      65                N/A     3/12
$$

.............KEY..............
   WCI - WIND CHILL
   TC  - TEMPERATURE IN CELSIUS
   VSB - VISIBILITY IN MILES
   HX  - HEAT INDEX
   FAIR- INDICATES FEW OR NO CLOUDS BELOW 12,000 FT, WITH NO 
         SIGNIFICANT WEATHER AND/OR OBSTRUCTIONS TO VISIBILITY.


  


000
ASUS41 KGYX 181010
RWRGYX
WEATHER ROUNDUP FOR MAINE AND NEW HAMPSHIRE
NATIONAL WEATHER SERVICE GRAY ME
600 AM EDT TUE SEP 18 2018

MEZ002-005-006-010-012-015-018-020-021-024-026-027-029-181100-
MAINE
  
CITY           SKY/WX    TMP DP  RH WIND       PRES   REMARKS
PORTLAND       MOCLDY    70  69  97 SW8       29.84F                  
SANFORD        LGT RAIN  69  68  96 SW7       29.86F                  
BAR HARBOR     FAIR      65  63  93 SW7       29.82F                  
WISCASSET      MOCLDY    68  67  96 CALM      29.85S                  
ROCKLAND       CLOUDY    68  67  96 W12       29.84S                  
FRYEBURG       LGT RAIN  69  66  90 SW9       29.83F                  
LEWISTONAUBURN FAIR      67  65  93 S3        29.83F                  
AUGUSTA        FAIR      65  63  93 S5        29.84S                  
WATERVILLE     FAIR      63  62  97 S3        29.81S                  
BANGOR         MOCLDY    65  63  93 S6        29.81F                  
GREENVILLE       N/A     65  59  81 VRB3      29.80R                  
MILLINOCKET    FAIR      64  62  93 CALM      29.79R                  
HOULTON        FAIR      62  62 100 S7        29.74R                  
PRESQUE ISLE   MOCLDY    62  59  90 W3        29.73S                  
FRENCHVILLE    HVY RAIN  58  53  84 SW3       29.72R                  
CARIBOU        FAIR      65  60  84 W5        29.72S                  
$$

NHZ002-005-008-009-011-012-014-181100-
NEW HAMPSHIRE
  
CITY           SKY/WX    TMP DP  RH WIND       PRES   REMARKS
ROCHESTER      LGT RAIN  69  69 100 CALM      29.86F                  
NASHUA         HVY RAIN  68  68 100 E5        29.84F FOG              
MANCHESTER     RAIN      69  68  96 SE8       29.83F FOG              
CONCORD        LGT RAIN  69  68  96 SE7       29.85F                  
LACONIA        FAIR      69  67  93 SW7       29.85F                  
PLYMOUTH       HVY RAIN  63  62  96 CALM      29.84F                  
BERLIN         FAIR      59  58  96 CALM      29.86F                  
WHITEFIELD     MOCLDY    59  57  93 CALM      29.86F                  
JAFFREY        RAIN      67  67 100 CALM      29.85F FOG              
KEENE          RAIN     N/A N/A N/A CALM      29.83F                  
LEBANON        LGT RAIN  69  66  90 CALM      29.83F FOG              
MT WASHINGTON  FOG       52  52 100 W39G47      N/A  VSB 0            
$$

VTZ005-007-008-181100-
VERMONT
  
CITY           SKY/WX    TMP DP  RH WIND       PRES   REMARKS
ST JOHNSBURY     N/A     60  59  96 MISG      29.82F                  
MONTPELIER     FAIR      65  64  97 CALM      29.87F                  
BURLINGTON     FAIR      71  66  84 S7        29.80F                  
$$

MAZ007-012-024-CTZ003-RIZ002-NYZ038-NYZ072-181100-
SOUTHERN NEW ENGLAND AND NY
  
CITY           SKY/WX    TMP DP  RH WIND       PRES   REMARKS
BOSTON         LGT RAIN  71  70  96 E6        29.85F FOG              
WORCESTER      HVY RAIN  69  69 100 S13       29.83F FOG              
NANTUCKET      FAIR      69  69 100 S6        29.90F                  
PROVIDENCE     MOCLDY    72  71  97 S7        29.85F                  
HARTFORD       CLOUDY    73  72  96 S10       29.78F                  
ALBANY         HVY RAIN  69  67  93 NE7       29.80R FOG              
NEW YORK CITY  CLOUDY    77  72  84 S10       29.78F                  
$$

ANZ081-ANZ082-ANZ150-NHZ014-MEZ023>029-181100-
COASTAL MARINE OBSERVATIONS
  
STATION/POSITION TIME  TEMP    WIND        PRES    WAVE
                       AIR SEA DIR/SP/G            HT/PER
                 (UTC) (F)     (DEG/KT/KT) (MB)    (FT/S)
MOUNT DESERT ROC 1000   62     220/ 17/ 18 1010.6R
MATINICUS ROCK   0900   63     220/ 20/ 21 1010.0F
ISLE OF SHOALS   0900   68     220/ 17/ 18 1011.3F
JEFFREYS LEDGE   0936      65                N/A     3/12
$$

.............KEY..............
   WCI - WIND CHILL
   TC  - TEMPERATURE IN CELSIUS
   VSB - VISIBILITY IN MILES
   HX  - HEAT INDEX
   FAIR- INDICATES FEW OR NO CLOUDS BELOW 12,000 FT, WITH NO 
         SIGNIFICANT WEATHER AND/OR OBSTRUCTIONS TO VISIBILITY.